Weather History for Storm Lake, IA

Change the Weather History Date:

Thursday, August 22, 2013

  Actual Average Record
Temperature  
Mean Temperature 74 °F -  
Max Temperature 80 °F 78 °F 91 °F (1998)
Min Temperature 68 °F 61 °F 53 °F (1997)
Cooling Degree Days 9    
Growing Degree Days 24 (Base 50)    
Moisture  
Dew Point 69 °F    
Average Humidity 86    
Maximum Humidity 100    
Minimum Humidity 69    
Precipitation  
Precipitation 0.42 in - - ()
Sea Level Pressure  
Sea Level Pressure 30.07 in    
Wind  
Wind Speed 8 mph (NNE)    
Max Wind Speed 24 mph    
Max Gust Speed 36 mph    
Visibility 9 miles    
Events Rain    
Averages and records for this station are not official NWS values.
T = Trace of Precipitation, MM = Missing Value Source: NWS Daily Summary

Daily Weather History Graph

Daily Weather History Graph

Search for Another Location

Airport:

Trip Planner

Search our weather history database for the weather conditions in past years. The results will help you decide how hot, cold, wet, or windy it might be!

Date:

Astronomy

Aug. 22, 2013 Rise Set
Actual Time 6:35 AM CDT 8:11 PM CDT
Civil Twilight 6:05 AM CDT 8:40 PM CDT
Nautical Twilight 5:29 AM CDT 9:16 PM CDT
Astronomical Twilight 4:51 AM CDT 9:55 PM CDT
Moon 8:51 PM CDT (8/22) 8:28 AM CDT (8/22)
Length of Visible Light 14h 35m
Length of Day
13h 35m
Waning Gibbous, 96% of the Moon is Illuminated
Aug 22
Waning Gibbous
Aug 28
Last Quarter
Sep 5
New
Sep 12
First Quarter
Sep 19
Full

Hourly Weather History & Observations

Time (CDT) Temp. Heat Index Dew Point Humidity Pressure Visibility Wind Dir Wind Speed Gust Speed Precip Events Conditions
12:15 AM 75.2 °F - 73.4 °F 94% 29.99 in 8.0 mi South 9.2 mph - N/A   Clear
12:35 AM 75.2 °F - 73.4 °F 94% 29.99 in 10.0 mi South 8.1 mph - N/A   Clear
12:55 AM 75.2 °F - 73.4 °F 94% 30.00 in 10.0 mi SSW 5.8 mph - N/A   Clear
1:15 AM 75.2 °F - 73.4 °F 94% 29.99 in 10.0 mi South 8.1 mph - N/A   Clear
1:35 AM 75.2 °F - 73.4 °F 94% 30.00 in 10.0 mi SSW 9.2 mph - N/A   Partly Cloudy
1:55 AM 71.6 °F - 69.8 °F 94% 30.03 in 5.0 mi West 24.2 mph 35.7 mph N/A Rain Light Rain
2:15 AM 68.0 °F - 68.0 °F 100% 30.04 in 4.0 mi West 19.6 mph 29.9 mph N/A Rain Rain
2:35 AM 68.0 °F - 68.0 °F 100% 30.06 in 5.0 mi WSW 17.3 mph 25.3 mph N/A Rain Light Rain
2:55 AM 68.0 °F - 68.0 °F 100% 30.07 in 3.0 mi West 13.8 mph 23.0 mph 0.17 in Rain Heavy Rain
3:15 AM 68.0 °F - 68.0 °F 100% 30.06 in 3.0 mi West 11.5 mph - N/A Rain Heavy Rain
3:35 AM 68.0 °F - 68.0 °F 100% 30.06 in 4.0 mi West 10.4 mph - N/A Rain Rain
3:55 AM 68.0 °F - 68.0 °F 100% 30.04 in 4.0 mi NW 15.0 mph - 0.23 in Rain Heavy Rain
4:15 AM 68.0 °F - 68.0 °F 100% 30.04 in 6.0 mi NW 11.5 mph - N/A Rain Light Rain
4:35 AM 68.0 °F - 68.0 °F 100% 30.03 in 10.0 mi NW 9.2 mph - N/A   Light Drizzle
4:55 AM 68.0 °F - 68.0 °F 100% 30.03 in 10.0 mi NNW 12.7 mph - 0.02 in   Overcast
5:15 AM 68.0 °F - 68.0 °F 100% 30.04 in 10.0 mi NW 12.7 mph - N/A   Overcast
5:35 AM 68.0 °F - 68.0 °F 100% 30.04 in 10.0 mi NNW 8.1 mph - N/A   Overcast
5:55 AM 69.8 °F - 68.0 °F 94% 30.04 in 10.0 mi WNW 6.9 mph - N/A   Overcast
6:15 AM 68.0 °F - 68.0 °F 100% 30.04 in 10.0 mi West 3.5 mph - N/A   Overcast
6:35 AM 68.0 °F - 68.0 °F 100% 30.03 in 10.0 mi NW 6.9 mph - N/A   Mostly Cloudy
6:55 AM 68.0 °F - 68.0 °F 100% 30.03 in 10.0 mi NW 6.9 mph - N/A   Overcast
7:15 AM 68.0 °F - 66.2 °F 94% 30.04 in 10.0 mi NNW 5.8 mph - N/A   Overcast
7:35 AM 69.8 °F - 66.2 °F 88% 30.06 in 10.0 mi NNW 5.8 mph - N/A   Overcast
7:55 AM 69.8 °F - 66.2 °F 88% 30.07 in 10.0 mi Variable 4.6 mph - N/A   Mostly Cloudy
8:15 AM 69.8 °F - 68.0 °F 94% 30.07 in 10.0 mi North 5.8 mph - N/A   Scattered Clouds
8:35 AM 69.8 °F - 68.0 °F 94% 30.07 in 10.0 mi NNE 4.6 mph - N/A   Mostly Cloudy
8:55 AM 69.8 °F - 68.0 °F 94% 30.08 in 10.0 mi NE 5.8 mph - N/A   Mostly Cloudy
9:15 AM 71.6 °F - 68.0 °F 88% 30.08 in 10.0 mi Calm Calm - N/A   Mostly Cloudy
9:35 AM 73.4 °F - 69.8 °F 88% 30.09 in 10.0 mi NNE 9.2 mph - N/A   Partly Cloudy
9:55 AM 73.4 °F - 69.8 °F 88% 30.07 in 10.0 mi NE 5.8 mph - N/A   Clear
10:15 AM 73.4 °F - 69.8 °F 88% 30.07 in 9.0 mi NE 5.8 mph - N/A   Clear
10:35 AM 75.2 °F - 69.8 °F 83% 30.07 in 10.0 mi Variable 4.6 mph - N/A   Clear
10:55 AM 77.0 °F - 68.0 °F 74% 30.07 in 10.0 mi Calm Calm - N/A   Clear
11:15 AM 77.0 °F - 68.0 °F 74% 30.08 in 10.0 mi ENE 5.8 mph - N/A   Clear
11:35 AM 77.0 °F - 68.0 °F 74% 30.10 in - ENE 5.8 mph - N/A   Clear
11:55 AM 78.8 °F - 68.0 °F 69% 30.10 in 10.0 mi Variable 4.6 mph - N/A   Clear
12:15 PM 78.8 °F - 68.0 °F 69% 30.10 in 10.0 mi Calm Calm - N/A   Partly Cloudy
12:35 PM 78.8 °F - 69.8 °F 74% 30.09 in 10.0 mi Variable 3.5 mph - N/A   Partly Cloudy
12:55 PM 78.8 °F - 69.8 °F 74% 30.09 in 10.0 mi NE 5.8 mph - N/A   Partly Cloudy
1:15 PM 78.8 °F - 69.8 °F 74% 30.08 in 10.0 mi Variable 4.6 mph - N/A   Clear
1:35 PM 80.6 °F 83.9 °F 69.8 °F 70% 30.09 in 10.0 mi Calm Calm - N/A   Partly Cloudy
1:55 PM 78.8 °F - 69.8 °F 74% 30.10 in 10.0 mi Variable 3.5 mph - N/A   Scattered Clouds
2:15 PM 78.8 °F - 69.8 °F 74% 30.10 in 10.0 mi SW 8.1 mph - N/A   Mostly Cloudy
2:35 PM 80.6 °F 84.6 °F 71.6 °F 74% 30.09 in 10.0 mi South 8.1 mph - N/A   Mostly Cloudy
2:55 PM 80.6 °F 84.6 °F 71.6 °F 74% 30.09 in 10.0 mi Variable 6.9 mph - N/A   Scattered Clouds
3:15 PM 80.6 °F 84.6 °F 71.6 °F 74% 30.09 in 10.0 mi Variable 4.6 mph - N/A   Partly Cloudy
3:35 PM 78.8 °F - 69.8 °F 74% 30.09 in 10.0 mi South 6.9 mph - N/A   Mostly Cloudy
3:55 PM 80.6 °F 83.9 °F 69.8 °F 70% 30.08 in 10.0 mi WSW 5.8 mph - N/A   Scattered Clouds
4:15 PM 80.6 °F 83.9 °F 69.8 °F 70% 30.08 in 10.0 mi Calm Calm - N/A   Scattered Clouds
4:35 PM 80.6 °F 83.9 °F 69.8 °F 70% 30.08 in 10.0 mi Variable 3.5 mph - N/A   Partly Cloudy
4:55 PM 78.8 °F - 69.8 °F 74% 30.08 in 10.0 mi ENE 4.6 mph - N/A   Mostly Cloudy
5:15 PM 80.6 °F 83.9 °F 69.8 °F 70% 30.07 in 10.0 mi South 3.5 mph - N/A   Partly Cloudy
5:35 PM 80.6 °F 83.9 °F 69.8 °F 70% 30.07 in 10.0 mi NE 3.5 mph - N/A   Mostly Cloudy
5:55 PM 80.6 °F 83.9 °F 69.8 °F 70% 30.07 in 10.0 mi NE 3.5 mph - N/A   Scattered Clouds
6:15 PM 80.6 °F 83.9 °F 69.8 °F 70% 30.07 in 10.0 mi ENE 6.9 mph - N/A   Clear
6:35 PM 80.6 °F 83.9 °F 69.8 °F 70% 30.07 in 10.0 mi NE 5.8 mph - N/A   Scattered Clouds
6:55 PM 80.6 °F 83.9 °F 69.8 °F 70% 30.07 in 10.0 mi ENE 4.6 mph - N/A   Mostly Cloudy
7:15 PM 78.8 °F - 69.8 °F 74% 30.07 in 10.0 mi East 3.5 mph - N/A   Mostly Cloudy
7:35 PM 77.0 °F - 71.6 °F 83% 30.07 in 10.0 mi East 3.5 mph - N/A   Scattered Clouds
7:55 PM 75.2 °F - 71.6 °F 89% 30.07 in 10.0 mi NE 5.8 mph - N/A   Scattered Clouds
8:15 PM 75.2 °F - 71.6 °F 89% 30.07 in 10.0 mi NE 6.9 mph - N/A   Partly Cloudy
8:35 PM 73.4 °F - 71.6 °F 94% 30.07 in 10.0 mi NE 6.9 mph - N/A   Partly Cloudy
8:55 PM 73.4 °F - 71.6 °F 94% 30.08 in - NE 6.9 mph - N/A   Unknown
9:15 PM 73.4 °F - 71.6 °F 94% 30.09 in 10.0 mi ENE 8.1 mph - N/A   Clear
9:35 PM 73.4 °F - 71.6 °F 94% 30.09 in 10.0 mi ENE 8.1 mph - N/A   Clear
9:55 PM 73.4 °F - 69.8 °F 88% 30.09 in 10.0 mi ENE 8.1 mph - N/A   Clear
10:15 PM 71.6 °F - 69.8 °F 94% 30.09 in 10.0 mi ENE 8.1 mph - N/A   Clear
10:35 PM 71.6 °F - 69.8 °F 94% 30.09 in 10.0 mi ENE 6.9 mph - N/A   Clear
10:55 PM 71.6 °F - 69.8 °F 94% 30.10 in 10.0 mi ENE 8.1 mph - N/A   Clear
11:15 PM 69.8 °F - 68.0 °F 94% 30.10 in 10.0 mi East 6.9 mph - N/A   Clear
11:35 PM 69.8 °F - 68.0 °F 94% 30.11 in 9.0 mi ENE 5.8 mph - N/A   Clear
11:55 PM 68.0 °F - 68.0 °F 100% 30.11 in 7.0 mi ENE 4.6 mph - N/A   Clear